This is the latest recevied weather packets stored in our database for station/object K7NDG. If no packets are shown the sender has not sent any weather packets the latest 10 day(s).
| Time | Temp. | Humidity | Pressure | Rain* | Wind** | Luminosity | Snow |
|---|---|---|---|---|---|---|---|
| 1777752471 | 21.67° C | 59% | 1015.9 hPa | 0 mm | - | 615 W/m² | - |
| 1777752167 | 21.67° C | 59% | 1015.8 hPa | 0 mm | - | 604 W/m² | - |
| 1777751866 | 22.22° C | 59% | 1015.9 hPa | 0 mm | - | 632 W/m² | - |
| 1777751562 | 21.67° C | 62% | 1015.9 hPa | 0 mm | - | 628 W/m² | - |
| 1777751259 | 21.67° C | 61% | 1015.9 hPa | 0 mm | - | 620 W/m² | - |
| 1777750956 | 21.67° C | 60% | 1016.1 hPa | 0 mm | - | 635 W/m² | - |
| 1777750651 | 21.11° C | 62% | 1016 hPa | 0 mm | - | 628 W/m² | - |
| 1777750349 | 21.11° C | 64% | 1016.2 hPa | 0 mm | - | 615 W/m² | - |
| 1777750049 | 20.56° C | 64% | 1016.2 hPa | 0 mm | - | 614 W/m² | - |
| 1777749747 | 20.56° C | 63% | 1016.2 hPa | 0 mm | - | 592 W/m² | - |
| 1777749443 | 20° C | 66% | 1016.3 hPa | 0 mm | - | 448 W/m² | - |
| 1777749141 | 20° C | 64% | 1016.4 hPa | 0 mm | - | 226 W/m² | - |
| 1777748838 | 20° C | 64% | 1016.5 hPa | 0 mm | - | 294 W/m² | - |
| 1777748536 | 20° C | 66% | 1016.5 hPa | 0 mm | - | 1368 W/m² | - |
| 1777748235 | 19.44° C | 67% | 1016.3 hPa | 0 mm | - | 399 W/m² | - |
| 1777747932 | 18.89° C | 68% | 1016.5 hPa | 0 mm | - | 221 W/m² | - |
| 1777747629 | 18.33° C | 70% | 1016.4 hPa | 0 mm | - | 218 W/m² | - |
| 1777747324 | 18.33° C | 69% | 1016.6 hPa | 0 mm | - | 231 W/m² | - |
| 1777747021 | 17.78° C | 69% | 1016.6 hPa | 0 mm | - | 346 W/m² | - |
| 1777746717 | 17.78° C | 67% | 1016.9 hPa | 0 mm | - | 586 W/m² | - |
| 1777746412 | 18.33° C | 68% | 1016.6 hPa | 0 mm | - | 585 W/m² | - |
| 1777746108 | 17.78° C | 71% | 1016.8 hPa | 0 mm | - | 514 W/m² | - |
| 1777745806 | 17.78° C | 68% | 1016.9 hPa | 0 mm | - | 530 W/m² | - |
| 1777745505 | 17.78° C | 70% | 1016.9 hPa | 0 mm | - | 561 W/m² | - |
| 1777745201 | 17.22° C | 70% | 1017.1 hPa | 0 mm | - | 555 W/m² | - |
* Rain latest hour (hover to see other rain measurements)
** Current wind speed in m/s (hover to see current wind gust speed)